TimeEDT,TemperatureF,Dew PointF,Humidity,Sea Level PressureIn,VisibilityMPH,Wind Direction,Wind SpeedMPH,Gust SpeedMPH,PrecipitationIn,Events,Conditions,WindDirDegrees,DateUTC
12:51 AM,57.0,52.0,83,30.20,10.0,Calm,Calm,-,N/A,,Overcast,0,2012-10-25 04:51:00
1:12 AM,55.9,51.1,84,30.23,10.0,Variable,5.8,-,N/A,,Overcast,0,2012-10-25 05:12:00
1:51 AM,55.9,51.1,84,30.22,10.0,Variable,3.5,-,N/A,,Overcast,0,2012-10-25 05:51:00
2:51 AM,55.9,51.1,84,30.21,10.0,ENE,3.5,-,N/A,,Overcast,70,2012-10-25 06:51:00
3:36 AM,55.9,51.1,84,30.23,10.0,ENE,3.5,-,N/A,,Overcast,70,2012-10-25 07:36:00
3:47 AM,55.4,51.8,88,30.23,10.0,Variable,3.5,-,N/A,,Overcast,0,2012-10-25 07:47:00
3:51 AM,55.9,51.1,84,30.21,10.0,ENE,3.5,-,N/A,,Overcast,60,2012-10-25 07:51:00
4:14 AM,55.9,51.1,84,30.23,10.0,Variable,5.8,-,N/A,,Overcast,0,2012-10-25 08:14:00
4:51 AM,55.9,51.1,84,30.21,10.0,ENE,6.9,-,N/A,,Overcast,60,2012-10-25 08:51:00
5:51 AM,55.0,50.0,83,30.22,10.0,ESE,5.8,-,N/A,,Overcast,110,2012-10-25 09:51:00
6:51 AM,55.9,50.0,80,30.24,10.0,Calm,Calm,-,N/A,,Overcast,0,2012-10-25 10:51:00
7:51 AM,55.9,48.9,77,30.25,10.0,ENE,4.6,-,N/A,,Overcast,60,2012-10-25 11:51:00
8:51 AM,57.0,50.0,77,30.26,10.0,East,5.8,-,N/A,,Overcast,100,2012-10-25 12:51:00
9:51 AM,57.9,50.0,75,30.27,10.0,Variable,4.6,-,N/A,,Overcast,0,2012-10-25 13:51:00
10:51 AM,59.0,51.1,75,30.27,10.0,ENE,3.5,-,N/A,,Overcast,70,2012-10-25 14:51:00
11:51 AM,60.1,51.1,72,30.27,10.0,NE,5.8,-,N/A,,Overcast,50,2012-10-25 15:51:00
12:51 PM,61.0,52.0,72,30.26,10.0,Calm,Calm,-,N/A,,Overcast,0,2012-10-25 16:51:00
1:51 PM,61.0,52.0,72,30.25,10.0,Variable,5.8,-,N/A,,Overcast,0,2012-10-25 17:51:00
2:51 PM,61.0,52.0,72,30.24,10.0,Calm,Calm,-,N/A,,Overcast,0,2012-10-25 18:51:00
3:51 PM,61.0,53.1,75,30.24,10.0,East,4.6,-,N/A,,Overcast,80,2012-10-25 19:51:00
4:51 PM,60.1,54.0,80,30.24,10.0,Variable,4.6,-,N/A,,Overcast,0,2012-10-25 20:51:00
5:51 PM,59.0,53.1,81,30.25,10.0,Calm,Calm,-,N/A,,Overcast,0,2012-10-25 21:51:00
6:51 PM,60.1,51.1,72,30.26,10.0,Variable,3.5,-,N/A,,Overcast,0,2012-10-25 22:51:00
7:51 PM,59.0,50.0,72,30.26,10.0,Calm,Calm,-,N/A,,Overcast,0,2012-10-25 23:51:00
8:51 PM,59.0,50.0,72,30.25,10.0,Calm,Calm,-,N/A,,Overcast,0,2012-10-26 00:51:00
9:51 PM,59.0,50.0,72,30.25,10.0,Variable,3.5,-,N/A,,Overcast,0,2012-10-26 01:51:00
10:51 PM,59.0,51.1,75,30.24,10.0,South,3.5,-,N/A,,Overcast,190,2012-10-26 02:51:00
11:51 PM,59.0,51.1,75,30.24,10.0,Variable,3.5,-,N/A,,Overcast,0,2012-10-26 03:51:00